Date String (YYYY-MM-DD hh:mm:ss) UTC,Instrument flags,absolute air pressure of the measurement (hPa),sample flow rate (lpm),inlet stack bypass flow (lpm),air temperature of the measurement (°C),ambient temperature measured by the external sensor (°C),aerosol sample conditioner tube jacket temperature (°C),OPC LED temperature (°C),internal box temperature (°C),relative humidity of the measurement (%),span deviation,mass concentration of particles derived from Lorenz-Mie calculation of OPC scattering (μg/m³),mass concentration of particles derived from Lorenz-Mie calculation of OPC scattering (μg/m³),mass concentration of particles derived from Lorenz-Mie calculation of OPC scattering (μg/m³)
DateTimeUTC,F1_M11,P_M11,Q1_M11,Q2_M11,T1_M11,T2_M11,T3_M11,T4_M11,T5_M11,U1_M11,ZSPAN_M11,X2_M11,X0_M11,X1_M11
2023-10-08 20:00:00,SystemResetWarning,0832.0,5.01,000.00,028.3,024.4,000.0,036.6,029.7,11.5,0000.0,0002.32,0006.34,0001.91
2023-10-08 20:01:00,SystemResetWarning,0832.0,5.00,000.00,028.2,024.8,000.0,036.6,029.6,11.7,0000.0,0002.29,0007.33,0001.87
2023-10-08 20:02:00,SystemResetWarning,0832.0,5.00,000.00,028.1,025.2,000.0,036.6,029.7,11.9,0000.0,0002.26,0007.27,0001.85
2023-10-08 20:03:00,SystemResetWarning,0831.9,4.99,000.00,028.2,025.7,000.0,036.7,029.8,12.0,0000.0,0002.21,0007.18,0001.82
2023-10-08 20:04:00,SystemResetWarning,0831.9,5.00,000.00,028.2,026.0,000.0,036.7,029.9,11.7,0000.0,0002.16,0007.73,0001.79
2023-10-08 20:05:00,SystemResetWarning,0831.9,5.01,000.00,028.2,026.4,000.0,036.7,029.9,11.7,0000.0,0002.10,0007.93,0001.75
2023-10-08 20:06:00,SystemResetWarning,0832.0,5.01,000.00,028.2,026.6,000.0,036.7,030.0,11.8,0000.0,0002.05,0007.62,0001.71
2023-10-08 20:07:00,SystemResetWarning,0831.9,5.00,000.00,028.3,026.9,000.0,036.7,030.1,11.8,0000.0,0002.05,0007.59,0001.72
2023-10-08 20:08:00,SystemResetWarning,0831.9,4.99,000.00,028.3,027.1,000.0,036.7,030.1,12.0,0000.0,0002.10,0007.69,0001.72
2023-10-08 20:09:00,SystemResetWarning,0831.9,5.00,000.00,028.4,027.3,000.0,036.7,030.2,11.9,0000.0,0002.11,0007.87,0001.72
2023-10-08 20:10:00,SystemResetWarning,0831.9,5.00,000.00,028.4,027.4,000.0,036.8,030.3,11.6,0000.0,0002.09,0007.89,0001.73
2023-10-08 20:11:00,SystemResetWarning,0831.9,4.99,000.00,028.5,026.7,000.0,036.7,030.3,11.7,0000.0,0002.10,0007.67,0001.75
2023-10-08 20:12:00,SystemResetWarning,0832.0,5.00,000.00,028.4,024.9,000.0,036.7,030.0,11.3,0000.0,0002.16,0007.02,0001.77
2023-10-08 20:13:00,SystemResetWarning,0831.7,5.01,000.00,028.3,024.3,000.0,036.6,029.9,11.3,0000.0,0002.22,0007.61,0001.79
2023-10-08 20:14:00,SystemResetWarning,0831.7,5.01,000.00,028.2,024.6,000.0,036.6,029.7,11.3,0000.0,0002.30,0008.37,0001.82
2023-10-08 20:15:00,SystemResetWarning,0831.7,4.99,000.00,028.2,024.9,000.0,036.6,029.7,11.6,0000.0,0002.33,0007.98,0001.83
2023-10-08 20:16:00,SystemResetWarning,0831.7,5.00,000.00,028.2,025.4,000.0,036.6,029.7,11.7,0000.0,0002.35,0007.83,0001.84
2023-10-08 20:17:00,SystemResetWarning,0831.7,5.01,000.00,028.2,025.8,000.0,036.6,029.8,11.7,0000.0,0002.36,0008.26,0001.86
2023-10-08 20:18:00,SystemResetWarning,0831.6,5.00,000.00,028.2,026.2,000.0,036.7,029.9,11.9,0000.0,0002.36,0008.31,0001.86
2023-10-08 20:19:00,SystemResetWarning,0831.6,5.00,000.00,028.2,026.5,000.0,036.7,030.0,12.1,0000.0,0002.31,0007.86,0001.84
2023-10-08 20:20:00,SystemResetWarning,0831.6,5.00,000.00,028.3,026.7,000.0,036.7,030.0,11.8,0000.0,0002.28,0007.67,0001.81
2023-10-08 20:21:00,SystemResetWarning,0831.6,5.00,000.00,028.3,027.0,000.0,036.7,030.1,11.9,0000.0,0002.25,0007.57,0001.80
2023-10-08 20:22:00,SystemResetWarning,0831.6,5.00,000.00,028.4,027.2,000.0,036.7,030.2,11.7,0000.0,0002.23,0007.51,0001.78
2023-10-08 20:23:00,SystemResetWarning,0831.7,4.99,000.00,028.4,027.3,000.0,036.7,030.2,11.7,0000.0,0002.19,0007.39,0001.75
2023-10-08 20:24:00,SystemResetWarning,0831.6,4.99,000.00,028.4,027.1,000.0,036.8,030.3,11.9,0000.0,0002.15,0006.65,0001.72
2023-10-08 20:25:00,SystemResetWarning,0831.6,5.00,000.00,028.4,025.4,000.0,036.7,030.1,11.8,0000.0,0002.06,0005.82,0001.68
2023-10-08 20:26:00,SystemResetWarning,0831.6,5.00,000.00,028.3,024.3,000.0,036.6,029.8,11.8,0000.0,0002.00,0004.98,0001.65
2023-10-08 20:27:00,SystemResetWarning,0831.6,5.01,000.00,028.2,024.4,000.0,036.6,029.7,11.9,0000.0,0001.97,0005.09,0001.63
2023-10-08 20:28:00,SystemResetWarning,0831.6,5.01,000.00,028.1,024.8,000.0,036.6,029.6,12.0,0000.0,0001.96,0004.65,0001.61
2023-10-08 20:29:00,SystemResetWarning,0831.6,4.99,000.00,028.1,025.2,000.0,036.6,029.7,11.9,0000.0,0001.99,0004.14,0001.60
2023-10-08 20:30:00,SystemResetWarning,0831.6,5.00,000.00,028.1,025.6,000.0,036.6,029.7,11.8,0000.0,0001.97,0004.71,0001.57
2023-10-08 20:31:00,SystemResetWarning,0831.6,5.00,000.00,028.1,026.0,000.0,036.6,029.8,11.8,0000.0,0001.93,0004.81,0001.56
2023-10-08 20:32:00,SystemResetWarning,0831.6,5.01,000.00,028.2,026.3,000.0,036.6,029.9,11.8,0000.0,0001.95,0004.89,0001.54
2023-10-08 20:33:00,SystemResetWarning,0831.6,5.00,000.00,028.2,026.6,000.0,036.6,030.0,11.8,0000.0,0002.00,0005.93,0001.54
2023-10-08 20:34:00,SystemResetWarning,0831.6,4.99,000.00,028.2,026.9,000.0,036.7,030.0,11.7,0000.0,0002.00,0006.88,0001.53
2023-10-08 20:35:00,SystemResetWarning,0831.6,4.99,000.00,028.3,027.1,000.0,036.7,030.1,11.6,0000.0,0001.99,0007.32,0001.53
2023-10-08 20:36:00,SystemResetWarning,0831.6,4.99,000.00,028.3,027.3,000.0,036.7,030.2,11.8,0000.0,0002.04,0007.41,0001.54
2023-10-08 20:37:00,SystemResetWarning,0831.6,5.00,000.00,028.4,026.7,000.0,036.7,030.2,11.8,0000.0,0002.07,0007.70,0001.53
2023-10-08 20:38:00,SystemResetWarning,0831.5,5.00,000.00,028.3,024.9,000.0,036.6,030.0,11.7,0000.0,0002.09,0007.69,0001.53
2023-10-08 20:39:00,SystemResetWarning,0831.5,5.00,000.00,028.2,024.1,000.0,036.6,029.8,11.7,0000.0,0002.11,0007.71,0001.52
2023-10-08 20:40:00,SystemResetWarning,0831.5,5.01,000.00,028.2,024.4,000.0,036.5,029.7,11.8,0000.0,0002.03,0007.41,0001.50
2023-10-08 20:41:00,SystemResetWarning,0831.5,5.00,000.00,028.1,024.7,000.0,036.5,029.6,12.0,0000.0,0002.01,0007.44,0001.51
2023-10-08 20:42:00,SystemResetWarning,0831.5,5.00,000.00,028.1,025.2,000.0,036.6,029.6,12.1,0000.0,0002.00,0007.21,0001.51
2023-10-08 20:43:00,SystemResetWarning,0831.5,5.00,000.00,028.1,025.6,000.0,036.6,029.7,12.2,0000.0,0001.98,0007.39,0001.51
2023-10-08 20:44:00,SystemResetWarning,0831.5,5.00,000.00,028.1,026.0,000.0,036.6,029.8,12.0,0000.0,0001.95,0007.91,0001.49
2023-10-08 20:45:00,SystemResetWarning,0831.5,5.00,000.00,028.1,026.3,000.0,036.6,029.9,12.0,0000.0,0001.92,0007.28,0001.49
2023-10-08 20:46:00,SystemResetWarning,0831.5,5.00,000.00,028.2,026.6,000.0,036.6,029.9,12.2,0000.0,0001.96,0006.67,0001.49
2023-10-08 20:47:00,SystemResetWarning,0831.5,5.00,000.00,028.2,026.9,000.0,036.6,030.0,12.3,0000.0,0001.95,0007.06,0001.49
2023-10-08 20:48:00,SystemResetWarning,0831.4,4.99,000.00,028.3,027.1,000.0,036.7,030.1,12.5,0000.0,0001.92,0007.10,0001.48
2023-10-08 20:49:00,SystemResetWarning,0831.5,4.99,000.00,028.3,027.2,000.0,036.7,030.2,11.9,0000.0,0001.91,0007.26,0001.47
2023-10-08 20:50:00,SystemResetWarning,0831.5,5.00,000.00,028.4,027.4,000.0,036.7,030.2,11.8,0000.0,0001.88,0007.20,0001.47
2023-10-08 20:51:00,SystemResetWarning,0831.5,5.00,000.00,028.4,026.6,000.0,036.7,030.2,11.8,0000.0,0001.89,0007.24,0001.47
2023-10-08 20:52:00,SystemResetWarning,0831.5,5.00,000.00,028.3,024.8,000.0,036.6,029.9,11.9,0000.0,0001.89,0006.53,0001.45
2023-10-08 20:53:00,SystemResetWarning,0831.4,5.00,000.00,028.3,024.2,000.0,036.6,029.8,11.9,0000.0,0001.87,0006.58,0001.45
2023-10-08 20:54:00,SystemResetWarning,0831.4,5.01,000.00,028.2,024.5,000.0,036.5,029.7,12.0,0000.0,0001.87,0007.24,0001.44
2023-10-08 20:55:00,SystemResetWarning,0831.5,5.00,000.00,028.1,024.9,000.0,036.6,029.6,11.9,0000.0,0001.84,0006.04,0001.45
2023-10-08 20:56:00,SystemResetWarning,0831.5,4.99,000.00,028.1,025.3,000.0,036.6,029.7,12.0,0000.0,0001.85,0006.56,0001.46
2023-10-08 20:57:00,SystemResetWarning,0831.5,5.01,000.00,028.1,025.8,000.0,036.6,029.8,12.0,0000.0,0001.79,0007.44,0001.45
2023-10-08 20:58:00,SystemResetWarning,0831.4,5.00,000.00,028.1,026.1,000.0,036.6,029.9,12.0,0000.0,0001.78,0007.17,0001.45
2023-10-08 20:59:00,SystemResetWarning,0831.5,5.00,000.00,028.2,026.5,000.0,036.6,029.9,12.0,0000.0,0001.79,0006.51,0001.45
